﻿Дата;Google;AdRiver
2012-08-02;1;0
2012-07-29;1;0
2012-07-28;1;0
2012-07-23;1;0
2012-07-22;3;0
2012-07-21;1;0
2012-07-14;1;0
2012-07-13;1;0
2012-07-10;2;0
2012-07-09;2;0
2012-07-01;2;0
2012-06-27;2;0
2012-06-26;5;0
2012-06-25;1;0
2012-06-19;1;0
2012-06-01;1;0
2012-05-08;1;0
2012-05-07;1;0
2012-04-03;1;0
2012-04-01;1;0
2011-11-25;2;0
2011-11-24;13;0
2011-11-22;2;0
2011-11-18;5;0
2011-11-17;3;0
2011-11-16;6;0
2011-11-15;1;0
2011-11-14;4;0
2011-11-09;2;0
2011-11-08;7;0
2011-11-04;6;0
2011-11-03;4;0
2011-11-02;2;0
2011-11-01;9;0
2011-10-31;4;0
2011-10-30;8;1
2011-10-29;17;0
2011-10-28;21;0
2011-10-27;18;0
2011-10-26;4;0
2011-10-23;6;0
2011-10-22;3;0
2011-10-21;3;1
2011-10-19;7;0
2011-10-18;16;0
2011-10-15;3;0
2011-10-14;4;0
2011-10-13;10;0
2011-10-12;9;0
2011-10-11;11;0
2011-10-07;3;0
2011-10-06;22;0
2011-10-05;7;0
2011-10-04;10;0
2011-10-03;1;0
2011-09-30;2;0
2011-09-29;23;0
2011-09-28;11;0
2011-09-27;12;0
2011-09-25;5;0
2011-09-22;10;0
2011-09-21;9;0
2011-09-20;12;0
2011-09-19;3;0
2011-09-18;23;0
2011-09-17;1;0
2011-09-16;10;0
2011-09-15;5;0
2011-09-14;12;0
2011-09-13;22;0
2011-09-12;14;0
2011-09-11;4;0
2011-09-09;5;0
2011-09-08;14;0
2011-09-07;8;0
2011-09-06;15;0
2011-09-05;20;0
2011-09-04;8;0
2011-09-03;3;0
2011-09-02;8;0
2011-08-31;5;0
2011-08-30;21;0
2011-08-29;10;0
2011-08-28;8;0
2011-08-27;4;0
2011-08-26;1;0
2011-08-25;4;0
2011-08-22;3;0
2011-08-21;7;0
2011-08-20;11;0
2011-08-19;2;0
2011-08-18;1;0
2011-08-17;5;0
2011-08-15;5;0
2011-08-14;1;0
2011-08-13;4;0
2011-08-11;17;0
2011-08-10;17;0
2011-08-09;13;1
2011-08-08;2;0
2011-08-02;10;0
2011-08-01;9;0
2011-07-31;4;0
2011-07-30;7;0
2011-07-29;20;0
2011-07-28;23;0
2011-07-27;16;0
2011-07-26;15;0
2011-07-25;29;0
2011-07-24;10;0
2011-07-23;20;0
2011-07-22;22;0
2011-07-21;42;0
2011-07-20;16;0
2011-07-19;23;0
2011-07-18;5;0
2011-07-17;4;0
2011-07-16;4;0
2011-07-15;10;0
2011-07-14;10;0
2011-07-13;7;0
2011-07-12;20;0
2011-07-11;20;0
2011-07-10;8;0
2011-07-09;4;0
2011-07-08;6;0
2011-07-07;4;0
2011-07-06;15;0
2011-07-05;13;0
2011-07-04;19;0
2011-07-03;16;0
2011-07-02;21;0
2011-07-01;16;0
2011-06-30;14;0
2011-06-29;2;0
2011-06-27;1;0
2011-06-21;15;0
2011-06-20;20;0
2011-06-19;19;0
2011-06-18;12;0
2011-06-17;9;0
2011-06-16;11;0
2011-06-15;13;0
2011-06-14;10;0
2011-06-13;18;0
2011-06-12;25;0
2011-06-10;17;0
2011-06-09;8;0
2011-06-08;9;0
2011-06-07;16;0
2011-06-06;21;0
2011-06-05;11;0
2011-06-04;5;0
2011-06-03;13;0
2011-06-02;19;0
2011-06-01;14;0
2011-05-31;29;0
2011-05-30;21;0
2011-05-29;8;0
2011-05-28;10;0
2011-05-27;11;0
2011-05-26;19;0
2011-05-25;24;0
2011-05-23;34;0
2011-05-22;26;0
2011-05-21;30;0
2011-05-20;17;0
2011-05-19;24;0
2011-05-18;23;0
2011-05-17;40;0
2011-05-16;21;0
2011-05-15;14;0
2011-05-14;32;0
2011-05-13;27;0
2011-05-12;38;0
2011-05-11;33;0
2011-05-10;34;0
2011-05-09;23;0
2011-05-08;34;0
2011-05-07;14;0
2011-05-06;28;0
2011-05-05;36;0
2011-05-04;41;0
2011-05-03;19;0
2011-05-02;15;0
2011-05-01;20;0
2011-04-30;18;0
2011-04-29;21;0
2011-04-28;16;0
2011-04-27;25;0
2011-04-26;32;0
2011-04-25;25;0
2011-04-24;14;0
2011-04-23;11;0
2011-04-22;1;0
2011-04-21;6;0
2011-04-20;17;0
2011-04-18;16;0
2011-04-17;13;0
2011-04-16;15;0
2011-04-15;21;0
2011-04-14;21;0
2011-04-13;17;0
2011-04-12;21;0
2011-04-11;23;0
2011-04-10;16;0
2011-04-09;4;0
2011-04-08;2;0
2011-04-07;6;0
2011-04-06;3;0
2011-04-05;1;0
2011-04-04;2;0
2011-04-03;3;0
2011-04-01;1;0
2011-03-31;2;0
2011-03-30;1;0
2011-03-29;20;0
2011-03-28;16;0
2011-03-27;5;0
2011-03-26;3;0
2011-03-25;1;0
2011-03-24;5;0
2011-03-23;25;0
2011-03-22;4;0
2011-03-21;3;0
2011-03-20;3;0
2011-03-19;4;0
2011-03-18;3;0
2011-03-17;4;0
2011-03-16;2;0
2011-03-15;2;0
2011-03-14;1;0
2011-03-13;3;0
2011-03-01;1;0
2011-02-28;1;0
2011-02-27;1;0
2011-02-25;1;0
2011-02-24;15;0
2011-02-21;59;0
2011-02-20;37;0
2011-02-19;70;0
2011-02-18;36;0
2011-02-17;60;0
2011-02-16;42;0
2011-02-15;59;0
2011-02-14;59;0
2011-02-13;51;0
2011-02-12;47;0
2011-02-11;43;0
2011-02-10;33;0
2011-02-04;4;0
2011-02-03;2;0
2011-02-02;45;0
2011-02-01;42;0
2011-01-31;1;0
2011-01-30;1;0
2011-01-29;10;0
2011-01-28;43;0
2011-01-27;37;0
2011-01-26;63;0
2011-01-25;52;0
2011-01-24;67;0
2011-01-22;19;0
2011-01-21;50;0
2011-01-20;100;0
2011-01-19;24;0
2011-01-18;22;0
2011-01-13;19;0
2011-01-12;18;0
2011-01-11;27;0
2011-01-10;10;0
2011-01-09;19;0
2011-01-08;26;0
2011-01-07;3;0
2011-01-06;4;0
2011-01-05;5;0
2010-12-22;3;0
2010-12-21;1;0
2010-12-12;1;0
2010-12-11;6;0
2010-12-10;1;0
2010-12-09;4;0
2010-12-08;6;0
2010-12-07;5;0
2010-12-05;4;0
2010-12-04;2;0
2010-12-03;2;0
2010-12-02;7;0
2010-12-01;4;0
2010-11-30;4;0
2010-11-29;1;0
2010-11-28;9;0
2010-11-27;14;0
2010-11-26;5;0
2010-11-25;8;0
2010-11-24;16;0
2010-11-20;15;0
2010-11-19;5;0
2010-11-18;14;0
2010-11-17;13;0
2010-11-11;2;0
2010-11-10;13;0
2010-11-09;21;0
2010-11-08;8;0
2010-11-06;20;0
2010-11-05;16;0
2010-11-04;7;0
2010-11-03;23;0
2010-11-02;25;0
2010-11-01;26;0
2010-10-30;22;0
2010-10-29;28;0
2010-10-28;29;0
2010-10-27;21;0
2010-10-26;18;0
2010-10-25;17;0
2010-10-23;7;0
2010-10-22;14;0
2010-10-21;17;0
2010-10-20;7;0
2010-10-19;17;0
2010-10-18;7;0
2010-10-14;1;0
2010-10-13;12;0
2010-10-12;2;0
2010-10-11;9;0
2010-10-05;1;0
2010-10-02;6;0
2010-10-01;14;0
2010-09-30;10;0
2010-09-29;4;0
2010-09-28;7;0
2010-09-27;3;0
2010-09-26;6;0
2010-09-25;3;0
2010-09-24;22;0
2010-09-23;28;0
2010-09-22;32;0
2010-09-21;13;0
2010-09-20;20;0
2010-09-18;1;0
2010-09-17;23;0
2010-09-16;5;0
2010-09-15;13;0
2010-09-14;31;0
2010-09-13;21;0
2010-09-12;17;0
2010-09-11;8;0
2010-09-10;9;0
2010-09-09;33;0
2010-09-08;17;0
2010-09-07;4;0
